Flag for Switzerland Weather past 2 weeks in Grenchen, Solothurn, Switzerland

Now
64 °F

Mild.


Feels Like: 64 °F
Forecast: 53 / 69 °F
Wind: 14 mph from West

Location: Grenchen

Current Time: May 30, 2015 at 1:30:33 AM

Latest Report: May 30, 2015 at 12:00 AM


Visibility: N/A

Pressure: 29.92 "Hg

Humidity: 44%

Dew point: 42 °F

Location of GrenchenLocation

Historic Weather in Grenchen — Graph

°F

Grenchen temperature yesterday

Maximum temperature yesterday: 76 °F (at 4:00 PM)
Minimum temperature yesterday: 46 °F (at 4:00 AM)
Average temperature yesterday: 62 °F

Past Weeks' High & Low Weather Summary

 TemperatureHumidityPressure
High76 °F (May 29, 4:00 PM)100% (May 22, 1:00 AM)30.36 "Hg (May 22, 1:00 AM)
Low38 °F (May 22, 5:00 AM)30% (May 29, 6:00 PM)29.73 "Hg (May 18, 8:00 PM)
Average55 °F73%30.08 "Hg
* Reported May 14 11:00 PM — May 29 11:00 PM, Grenchen, Weather by CustomWeather, © 2015

Note: Actual official high and low records may vary slightly from our data, if they occured in-between our weather recording intervals... More about our weather records

Advertising

Grenchen weather history for previous 24 hours

 ConditionsComfort  
Time TempWeatherWind HumidityBarometerVisibility
11:00 PM
Fri, May 29
64 °FMild.8 mph48%29.90 "HgN/A
10:00 PM66 °FMild.9 mph45%29.87 "HgN/A
9:00 PM68 °FMild.13 mph46%29.84 "HgN/A
8:00 PM71 °FMild.12 mph41%29.82 "HgN/A
7:00 PM74 °FMild.16 mph32%29.80 "HgN/A
6:00 PM76 °FMild.18 mph30%29.79 "HgN/A
5:00 PM76 °FMild.15 mph32%29.79 "HgN/A
4:00 PM76 °FMild.18 mph32%29.80 "HgN/A
3:00 PM75 °FMild.17 mph34%29.82 "HgN/A
2:00 PM73 °FMild.17 mph39%29.85 "HgN/A
1:00 PM70 °FMild.12 mph38%29.88 "HgN/A
12:00 PM66 °FMild.5 mph48%29.91 "HgN/A
11:00 AM64 °FMild.3 mph52%29.93 "HgN/A
10:00 AM61 °FRefreshingly cool.5 mph59%29.96 "HgN/A
9:00 AM56 °FCool.1 mph73%29.97 "HgN/A
8:00 AM53 °FCool.1 mph81%29.99 "HgN/A
7:00 AM51 °FCool.1 mph90%30.00 "HgN/A
6:00 AM49 °FCool.1 mph90%30.01 "HgN/A
5:00 AM49 °FCool.3 mph93%30.02 "HgN/A
4:00 AM46 °FCool.3 mph90%30.05 "HgN/A
3:00 AM48 °FCool.1 mph89%30.05 "HgN/A
2:00 AM49 °FCool.2 mph85%30.06 "HgN/A
1:00 AM53 °FCool.2 mph72%30.05 "HgN/A
Weather by CustomWeather, © 2015

See weather overviewHow to use our weather pages